Regional Weather Roundup
Issued by NWS

Home | Current Version | Previous Version | Graphics & Text | Print | Product List | Glossary On
Versions: 1 2 3 4 5 6 7 8 9 10 11 12 13 14 15 16 17 18 19 20 21 22 23 24 25 26 27
000
ASUS45 KSLC 301210
RWRUT

UTAH REGIONAL WEATHER ROUNDUP
NATIONAL WEATHER SERVICE SALT LAKE CITY UT
600 AM MDT THU MAR 30 2017

UTZ001>011-023>025-301300-

NORTHERN UTAH

CITY           SKY/WX    TMP DP  RH WIND       PRES   REMARKS
BRIGHAM CITY   CLOUDY    49  38  66 CALM      29.84F
HILL AFB       MOCLDY    47  35  63 S7        29.83F
LOGAN          CLOUDY    47  41  80 E6        29.83F
OGDEN          CLOUDY    49  35  58 S7        29.83F
SALT LAKE CITY CLOUDY    51  36  56 SE12      29.83F
TOOELE VALLEY  CLOUDY    50  36  57 S16       29.82F
WENDOVER       CLOUDY    46  38  73 N7        29.81F
HEBER CITY     CLOUDY    39  34  81 CALM      29.88F
WEST JORDAN    CLOUDY    52  42  69 S8        29.85F

$$

UTZ011>015-024>027-301300-

CENTRAL/NORTHEAST UTAH

CITY           SKY/WX    TMP DP  RH WIND       PRES   REMARKS
PROVO AIRPORT  CLOUDY    46  36  68 CALM      29.89F
MOAB/CANYONLAN CLEAR     41  24  51 CALM      29.90F
DELTA          PTCLDY    41  32  70 S7        29.89F
PRICE          MOCLDY    42  34  73 CALM      29.92F
ROOSEVELT      CLOUDY    43  34  70 CALM      29.92F
VERNAL         CLOUDY    42  34  73 CALM      29.91F

$$

UTZ013>016-019>022-027-301300-

SOUTHERN UTAH

CITY           SKY/WX    TMP DP  RH WIND       PRES   REMARKS
BRYCE CANYON   PTCLDY    29  22  75 W9        30.03F WCI  20
CEDAR CITY     PTCLDY    35  29  78 NW5       29.95F WCI  31
MILFORD        PTCLDY    40  32  73 SW16      29.91F WCI  31
ST GEORGE      CLOUDY    49  29  46 CALM      29.93F
HANKSVILLE     PTCLDY    34  21  60 NW6       29.94S WCI  29
BLANDING       MOCLDY    36  23  60 NE3       30.06S

$$

REGIONAL REPORTS     COLORADO/ARIZONA

CITY           SKY/WX    TMP DP  RH WIND       PRES   REMARKS
CRAIG, CO      CLOUDY    35  30  82 CALM      29.95F
GRAND JUNCTION PTCLDY    41  29  62 E13       29.94F
RIFLE, CO      MOCLDY    34  27  75 S3        29.98F
MONTROSE, CO   CLOUDY    37  26  64 E9        29.99F WCI  30
CORTEZ, CO     CLOUDY    27  23  85 NE6       30.00F WCI  20
COLORADO CITY    N/A     34  30  86 SE7       30.00F WCI  28
PAGE, AZ       MOCLDY    51  26  37 CALM      29.94F
GRAND CANYON   PTCLDY    28  24  85 CALM      30.06F
KINGMAN, AZ    PTCLDY    44  20  38 SE5       29.94F
FLAGSTAFF, AZ  CLEAR     26  20  77 CALM      30.07F

$$

REGIONAL REPORTS    NEVADA/IDAHO/WYOMING

CITY           SKY/WX    TMP DP  RH WIND       PRES   REMARKS
LAS VEGAS, NV  MOCLDY    57  29  34 W6        29.84F
ELY, NY        CLOUDY    40  30  67 S13       29.90F WCI  32
ELKO, NV       LGT RAIN  42  39  89 S7        29.83F
POCATELLO, ID  CLOUDY    44  42  93 S15       29.82F
BURLEY, ID     LGT RAIN  45  42  89 SW10      29.81F
FORT BRIDGER,  CLOUDY    39  34  82 W5        29.90F
EVANSTON, WY   CLOUDY    38  28  67 SW13      29.87F WCI  30
ROCK SPRINGS,  LGT RAIN  40  30  67 W8        29.91S WCI  34
KEMMERER, WY     N/A     32  32 100 CALM      29.88F FOG

$$




USA.gov is the U.S. government's official web portal to all federal, state and local government web resources and services.